Simultaneous Nadir Overpasses (SNOs) Predictions

Prediction of SNOs between LANDSAT-8 and METOP-A Satellite Orbit:

Table of predicted SNOs for the next 14.0 days since TLE Epoch: 1/26/2018
Index Date (LANDSAT-8) Time (LANDSAT-8) Lat,Lon (LANDSAT-8) SZA (LANDSAT-8 ) Date (METOP-A) Time (METOP-A) Lat,Lon (METOP-A) SZA (METOP-A ) Distance(km) Time Diff (sec)
1 01/28/2018 22:15:15 -80.94, 63.23 79.62 01/28/2018 22:14:01 -81.10, 62.77 79.55 19.48 74
2 01/28/2018 23:04:26 81.30,-123.57 101.16 01/28/2018 23:04:25 81.30,-123.52 101.17 0.99 1
3 01/28/2018 23:53:52 -81.31, 44.34 78.82 01/28/2018 23:55:04 -81.31, 44.47 78.78 2.20 72
4 01/31/2018 17:49:13 -81.28, 134.88 79.66 01/31/2018 17:48:04 -81.28, 134.73 79.70 2.61 69
5 01/31/2018 18:38:38 81.31, -57.01 100.40 01/31/2018 18:38:42 81.30, -56.86 100.41 2.58 4
6 02/03/2018 13:23:26 -81.29,-158.56 80.46 02/03/2018 13:22:22 -81.28,-158.62 80.50 1.09 64
7 02/03/2018 14:12:52 81.29, 9.14 99.54 02/03/2018 14:13:02 81.29, 9.01 99.53 2.26 10
8 02/06/2018 08:57:39 -81.29, -92.03 81.30 02/06/2018 08:56:40 -81.29, -91.98 81.32 0.84 59
9 02/06/2018 09:47:05 81.29, 75.65 98.69 02/06/2018 09:47:20 81.30, 75.65 98.70 0.42 15
10 02/09/2018 04:31:51 -81.29, -25.52 82.18 02/09/2018 04:30:57 -81.30, -25.34 82.18 3.07 54




NCC Satellite Simultaneous Nadir Overpasses (SNOs) Prediction Service
